When you browse on this site, cookies collect data to enhance your experience and personalize the content and advertising you see.
Visit our Privacy Policy to learn more. By continuing to use the site, you agree to this use of cookies and data.
  • In Austria
  • List of Countries
  • For 7 days
  • Water Temperature
  • Satellite Maps
  • Weather Map
  • News
  • Weather Widgets
  • user-avatar
    Login

    Hourly Weather Setubal

    Today, 19 May, Sunday

    Time Temperature Precipitation Wind Pressure Humidity
    00:00 +14°C° 0.1 mm 1 mps 756 mmHg 77%
    01:00 +14°C° 0.1 mm 1 mps 756 mmHg 79%
    02:00 +12°C° 0.1 mm 0 mps 756 mmHg 82%
    03:00 +12°C° 0 mm 0 mps 756 mmHg 82%
    04:00 +12°C° 0 mm 0 mps 755 mmHg 81%
    05:00 +13°C° 0 mm 0 mps 755 mmHg 79%
    06:00 +14°C° 0 mm 0 mps 755 mmHg 72%
    07:00 +16°C° 0 mm 0 mps 755 mmHg 64%
    08:00 +18°C° 0 mm 0 mps 755 mmHg 57%
    09:00 +21°C° 0 mm 1 mps 755 mmHg 54%
    10:00 +21°C° 0 mm 2 mps 755 mmHg 51%
    11:00 +21°C° 0 mm 3 mps 756 mmHg 55%
    12:00 +22°C° 0 mm 3 mps 755 mmHg 55%
    13:00 +22°C° 0 mm 4 mps 755 mmHg 54%
    14:00 +22°C° 0 mm 4 mps 755 mmHg 54%
    15:00 +22°C° 0 mm 4 mps 755 mmHg 54%
    16:00 +21°C° 0 mm 4 mps 755 mmHg 54%
    17:00 +21°C° 0 mm 4 mps 755 mmHg 54%
    18:00 +19°C° 0 mm 4 mps 755 mmHg 57%
    19:00 +17°C° 0 mm 4 mps 755 mmHg 59%
    20:00 +16°C° 0 mm 3 mps 756 mmHg 61%
    21:00 +14°C° 0 mm 3 mps 756 mmHg 63%
    22:00 +13°C° 0 mm 3 mps 756 mmHg 66%
    23:00 +12°C° 0 mm 3 mps 756 mmHg 68%

    Tomorrow, 20 May, Monday

    Time Temperature Precipitation Wind Pressure Humidity
    00:00 +13°C° 0 mm 2 mps 756 mmHg 69%
    01:00 +12°C° 0 mm 2 mps 755 mmHg 71%
    02:00 +12°C° 0 mm 2 mps 755 mmHg 73%
    03:00 +12°C° 0 mm 2 mps 755 mmHg 73%
    04:00 +12°C° 0 mm 2 mps 755 mmHg 74%
    05:00 +12°C° 0 mm 2 mps 755 mmHg 74%
    06:00 +14°C° 0 mm 2 mps 755 mmHg 65%
    07:00 +17°C° 0 mm 3 mps 756 mmHg 55%
    08:00 +19°C° 0 mm 3 mps 756 mmHg 45%
    09:00 +20°C° 0 mm 4 mps 756 mmHg 42%
    10:00 +22°C° 0 mm 4 mps 756 mmHg 40%
    11:00 +23°C° 0 mm 5 mps 756 mmHg 37%
    12:00 +23°C° 0 mm 5 mps 756 mmHg 39%
    13:00 +23°C° 0 mm 6 mps 755 mmHg 41%
    14:00 +23°C° 0 mm 6 mps 755 mmHg 42%
    15:00 +22°C° 0 mm 6 mps 755 mmHg 46%
    16:00 +21°C° 0 mm 6 mps 755 mmHg 50%
    17:00 +21°C° 0 mm 6 mps 755 mmHg 54%
    18:00 +19°C° 0 mm 5 mps 755 mmHg 62%
    19:00 +18°C° 0 mm 4 mps 756 mmHg 70%
    20:00 +16°C° 0 mm 3 mps 756 mmHg 78%
    21:00 +16°C° 0 mm 3 mps 756 mmHg 83%
    22:00 +15°C° 0 mm 2 mps 756 mmHg 87%
    23:00 +15°C° 0 mm 2 mps 757 mmHg 91%

    Day after tomorrow, 21 May, Tuesday

    Time Temperature Precipitation Wind Pressure Humidity
    00:00 +15°C° 0 mm 2 mps 756 mmHg 92%
    01:00 +14°C° 0 mm 1 mps 756 mmHg 93%
    02:00 +14°C° 0 mm 1 mps 756 mmHg 93%
    03:00 +14°C° 0 mm 1 mps 756 mmHg 94%
    04:00 +15°C° 0 mm 1 mps 756 mmHg 94%
    05:00 +14°C° 0 mm 0 mps 756 mmHg 95%
    06:00 +18°C° 0 mm 1 mps 756 mmHg 85%
    07:00 +19°C° 0 mm 2 mps 756 mmHg 74%
    08:00 +21°C° 0 mm 2 mps 757 mmHg 64%
    09:00 +22°C° 0 mm 3 mps 757 mmHg 59%
    10:00 +24°C° 0 mm 3 mps 757 mmHg 53%
    11:00 +25°C° 0 mm 3 mps 757 mmHg 47%
    12:00 +25°C° 0 mm 4 mps 756 mmHg 47%
    13:00 +25°C° 0 mm 4 mps 756 mmHg 47%
    14:00 +25°C° 0 mm 5 mps 756 mmHg 46%
    15:00 +25°C° 0 mm 5 mps 756 mmHg 49%
    16:00 +23°C° 0 mm 5 mps 756 mmHg 52%
    17:00 +22°C° 0 mm 6 mps 756 mmHg 55%
    18:00 +21°C° 0 mm 5 mps 756 mmHg 60%
    19:00 +19°C° 0 mm 4 mps 757 mmHg 65%
    20:00 +18°C° 0 mm 4 mps 757 mmHg 70%
    21:00 +17°C° 0 mm 3 mps 757 mmHg 74%
    22:00 +16°C° 0 mm 3 mps 757 mmHg 77%
    23:00 +16°C° 0 mm 2 mps 757 mmHg 81%

    22 May, Wednesday

    Time Temperature Precipitation Wind Pressure Humidity
    00:00 +15°C° 0 mm 2 mps 757 mmHg 82%
    01:00 +15°C° 0 mm 2 mps 757 mmHg 84%
    02:00 +15°C° 0 mm 2 mps 757 mmHg 85%
    03:00 +14°C° 0 mm 2 mps 756 mmHg 85%
    04:00 +14°C° 0 mm 2 mps 756 mmHg 84%
    05:00 +14°C° 0 mm 2 mps 756 mmHg 84%
    06:00 +17°C° 0 mm 2 mps 757 mmHg 73%
    07:00 +19°C° 0 mm 2 mps 757 mmHg 63%
    08:00 +23°C° 0 mm 2 mps 757 mmHg 52%
    09:00 +24°C° 0 mm 3 mps 757 mmHg 48%
    10:00 +26°C° 0 mm 3 mps 757 mmHg 43%
    11:00 +28°C° 0 mm 4 mps 757 mmHg 38%
    12:00 +28°C° 0 mm 4 mps 757 mmHg 36%
    13:00 +29°C° 0 mm 5 mps 757 mmHg 35%
    14:00 +29°C° 0 mm 5 mps 757 mmHg 34%
    15:00 +28°C° 0 mm 5 mps 757 mmHg 36%
    16:00 +27°C° 0 mm 6 mps 757 mmHg 39%
    17:00 +24°C° 0 mm 6 mps 757 mmHg 41%
    18:00 +22°C° 0 mm 6 mps 757 mmHg 46%
    19:00 +20°C° 0 mm 5 mps 757 mmHg 51%
    20:00 +17°C° 0 mm 5 mps 758 mmHg 57%
    21:00 +17°C° 0 mm 4 mps 758 mmHg 60%
    22:00 +17°C° 0 mm 3 mps 758 mmHg 64%
    23:00 +16°C° 0 mm 3 mps 758 mmHg 68%

    23 May, Thursday

    Time Temperature Precipitation Wind Pressure Humidity
    00:00 +14°C° 0 mm 3 mps 758 mmHg 70%
    01:00 +14°C° 0 mm 3 mps 757 mmHg 73%
    02:00 +13°C° 0 mm 3 mps 757 mmHg 75%
    03:00 +13°C° 0 mm 3 mps 757 mmHg 76%
    04:00 +13°C° 0 mm 3 mps 757 mmHg 76%
    05:00 +13°C° 0 mm 3 mps 758 mmHg 77%
    06:00 +17°C° 0 mm 4 mps 758 mmHg 66%
    07:00 +19°C° 0 mm 4 mps 758 mmHg 55%
    08:00 +22°C° 0 mm 4 mps 759 mmHg 45%
    09:00 +25°C° 0 mm 4 mps 758 mmHg 39%
    10:00 +27°C° 0 mm 4 mps 758 mmHg 34%
    11:00 +29°C° 0 mm 5 mps 758 mmHg 28%
    12:00 +29°C° 0 mm 5 mps 758 mmHg 28%
    13:00 +29°C° 0 mm 6 mps 758 mmHg 28%
    14:00 +30°C° 0 mm 7 mps 757 mmHg 27%
    15:00 +28°C° 0 mm 7 mps 757 mmHg 31%
    16:00 +27°C° 0 mm 7 mps 757 mmHg 34%
    17:00 +24°C° 0 mm 7 mps 758 mmHg 38%
    18:00 +22°C° 0 mm 7 mps 758 mmHg 49%
    19:00 +20°C° 0 mm 6 mps 758 mmHg 61%
    20:00 +17°C° 0 mm 5 mps 759 mmHg 72%
    21:00 +17°C° 0 mm 5 mps 759 mmHg 76%
    22:00 +16°C° 0 mm 5 mps 759 mmHg 79%
    23:00 +15°C° 0 mm 4 mps 759 mmHg 83%

    24 May, Friday

    Time Temperature Precipitation Wind Pressure Humidity
    00:00 +15°C° 0 mm 4 mps 758 mmHg 85%
    01:00 +14°C° 0 mm 4 mps 758 mmHg 86%
    02:00 +14°C° 0 mm 4 mps 758 mmHg 88%
    03:00 +14°C° 0 mm 4 mps 758 mmHg 89%
    04:00 +14°C° 0 mm 3 mps 758 mmHg 90%
    05:00 +14°C° 0 mm 3 mps 758 mmHg 91%
    06:00 +18°C° 0 mm 3 mps 758 mmHg 78%
    07:00 +20°C° 0 mm 3 mps 758 mmHg 65%
    08:00 +24°C° 0 mm 3 mps 758 mmHg 52%
    09:00 +27°C° 0 mm 3 mps 758 mmHg 44%
    10:00 +29°C° 0 mm 3 mps 758 mmHg 37%
    11:00 +33°C° 0 mm 3 mps 758 mmHg 30%
    12:00 +34°C° 0 mm 3 mps 757 mmHg 28%
    13:00 +34°C° 0 mm 4 mps 757 mmHg 26%
    14:00 +35°C° 0 mm 5 mps 757 mmHg 24%
    15:00 +34°C° 0 mm 5 mps 757 mmHg 27%
    16:00 +33°C° 0 mm 6 mps 756 mmHg 29%
    17:00 +32°C° 0 mm 7 mps 756 mmHg 32%
    18:00 +29°C° 0 mm 6 mps 757 mmHg 38%
    19:00 +26°C° 0 mm 5 mps 757 mmHg 43%
    20:00 +23°C° 0 mm 5 mps 757 mmHg 49%
    21:00 +22°C° 0 mm 4 mps 757 mmHg 50%
    22:00 +22°C° 0 mm 4 mps 757 mmHg 51%
    23:00 +21°C° 0 mm 4 mps 757 mmHg 53%
    Show more